QPF
0.00 0.00 0.01 0.00 0.00 0.01 0.03 0.03 0.02 0.02 0.02 0.02 0.02 0.02 0.02 0.01 0.01 0.01 0.00 0.00 0.00 0.00 0.00 0.01 0.01 0.01 0.01 0.01 0.01 0.02 0.02 0.02 0.02 0.01 0.00 0.00 0.00 0.01 0.03 0.06 0.03 0.03 0.05
0.00 0.00 0.00 0.01 0.01 0.02 0.03 0.02 0.02 0.01 0.02 0.02 0.02 0.02 0.02 0.01 0.01 0.01 0.00 0.00 0.00 0.00 0.00 0.00 0.01 0.01 0.01 0.02 0.02 0.02 0.01 0.01 0.01 0.00 0.00 0.00 0.01 0.02 0.03 0.04 0.03 0.03 0.04
0.00 0.00 0.00 0.01 0.01 0.01 0.02 0.01 0.01 0.01 0.02 0.02 0.02 0.02 0.01 0.01 0.00 0.00 0.00 0.00 0.00 0.00 0.00 0.01 0.02 0.01 0.02 0.02 0.02 0.02 0.02 0.01 0.00 0.01 0.01 0.00 0.01 0.02 0.03 0.05 0.05 0.04 0.05
0.00 0.00 0.00 0.00 0.01 0.01 0.01 0.01 0.01 0.01 0.02 0.03 0.03 0.01 0.01 0.01 0.00 0.00 0.00 0.00 0.00 0.00 0.00 0.01 0.02 0.02 0.01 0.02 0.01 0.02 0.03 0.04 0.04 0.03 0.01 0.00 0.00 0.02 0.04 0.07 0.08 0.07 0.06
0.00 0.00 0.00 0.00 0.00 0.01 0.01 0.01 0.01 0.01 0.02 0.03 0.02 0.01 0.00 0.00 0.00 0.00 0.00 0.00 0.00 0.00 0.00 0.00 0.01 0.01 0.01 0.01 0.01 0.01 0.02 0.05 0.08 0.04 0.00 0.00 0.01 0.02 0.04 0.07 0.08 0.08 0.07
0.00 0.00 0.00 0.00 0.00 0.00 0.00 0.01 0.01 0.01 0.02 0.02 0.02 0.01 0.01 0.00 0.00 0.00 0.00 0.00 0.00 0.00 0.00 0.00 0.01 0.00 0.01 0.01 0.01 0.01 0.02 0.04 0.03 0.01 0.00 0.00 0.00 0.03 0.04 0.06 0.07 0.10 0.09
0.00 0.00 0.00 0.00 0.00 0.00 0.00 0.01 0.01 0.01 0.01 0.01 0.02 0.02 0.02 0.01 0.00 0.00 0.00 0.00 0.00 0.00 0.00 0.00 0.00 0.00 0.00 0.01 0.00 0.01 0.03 0.02 0.00 0.00 0.00 0.00 0.01 0.03 0.04 0.05 0.07 0.07 0.09
0.00 0.00 0.00 0.00 0.00 0.00 0.01 0.01 0.01 0.01 0.01 0.01 0.02 0.02 0.02 0.01 0.00 0.00 0.00 0.00 0.00 0.00 0.00 0.00 0.00 0.00 0.00 0.00 0.00 0.01 0.02 0.01 0.00 0.00 0.00 0.00 0.03 0.04 0.05 0.08 0.08 0.07 0.07
0.00 0.00 0.00 0.00 0.00 0.00 0.01 0.01 0.01 0.01 0.01 0.01 0.01 0.02 0.01 0.00 0.00 0.00 0.00 0.00 0.00 0.00 0.00 0.00 0.00 0.00 0.00 0.00 0.00 0.00 0.01 0.01 0.00 0.00 0.00 0.02 0.07 0.07 0.08 0.10 0.09 0.08 0.09
0.00 0.00 0.00 0.00 0.00 0.00 0.00 0.01 0.02 0.02 0.01 0.01 0.01 0.01 0.00 0.00 0.00 0.00 0.00 0.00 0.00 0.00 0.00 0.00 0.00 0.00 0.00 0.00 0.00 0.01 0.02 0.01 0.00 0.00 0.01 0.03 0.05 0.05 0.06 0.06 0.07 0.08 0.08
0.00 0.00 0.00 0.00 0.00 0.00 0.00 0.01 0.02 0.02 0.01 0.01 0.01 0.01 0.00 0.00 0.00 0.00 0.00 0.00 0.00 0.00 0.00 0.00 0.00 0.00 0.00 0.00 0.00 0.01 0.01 0.00 0.00 0.00 0.00 0.01 0.02 0.02 0.02 0.04 0.05 0.05 0.05
0.00 0.00 0.00 0.00 0.00 0.00 0.00 0.00 0.00 0.01 0.01 0.00 0.00 0.00 0.00 0.00 0.00 0.00 0.00 0.00 0.00 0.00 0.00 0.00 0.00 0.00 0.00 0.00 0.00 0.01 0.00 0.00 0.00 0.00 0.00 0.00 0.00 0.00 0.01 0.02 0.02 0.02 0.02
0.00 0.00 0.00 0.00 0.00 0.00 0.00 0.00 0.00 0.00 0.00 0.00 0.00 0.00 0.00 0.00 0.00 0.00 0.00 0.00 0.00 0.00 0.00 0.00 0.00 0.00 0.00 0.00 0.00 0.00 0.00 0.00 0.00 0.00 0.00 0.01 0.00 0.00 0.00 0.00 0.01 0.01 0.00
0.00 0.00 0.00 0.00 0.00 0.00 0.00 0.00 0.00 0.00 0.00 0.00 0.00 0.00 0.00 0.00 0.00 0.00 0.00 0.00 0.00 0.00 0.00 0.00 0.00 0.00 0.00 0.00 0.00 0.00 0.00 0.00 0.00 0.00 0.00 0.01 0.02 0.02 0.02 0.01 0.00 0.01 0.00
0.00 0.00 0.00 0.00 0.00 0.00 0.00 0.00 0.00 0.00 0.00 0.00 0.00 0.00 0.00 0.00 0.00 0.00 0.00 0.00 0.00 0.00 0.00 0.00 0.00 0.00 0.00 0.00 0.00 0.00 0.00 0.00 0.00 0.00 0.00 0.02 0.03 0.04 0.04 0.02 0.01 0.01 0.01
0.00 0.00 0.00 0.00 0.00 0.00 0.00 0.00 0.00 0.00 0.00 0.00 0.00 0.00 0.00 0.00 0.00 0.00 0.00 0.00 0.00 0.00 0.00 0.00 0.00 0.00 0.00 0.00 0.00 0.00 0.00 0.00 0.00 0.00 0.00 0.01 0.02 0.04 0.05 0.05 0.03 0.02 0.02
0.00 0.00 0.00 0.00 0.00 0.00 0.00 0.00 0.00 0.00 0.00 0.00 0.00 0.00 0.00 0.00 0.00 0.00 0.00 0.00 0.00 0.00 0.00 0.00 0.00 0.00 0.00 0.00 0.00 0.00 0.00 0.00 0.00 0.00 0.00 0.00 0.01 0.03 0.06 0.08 0.06 0.04 0.03
0.00 0.00 0.00 0.00 0.00 0.00 0.00 0.00 0.00 0.00 0.00 0.00 0.00 0.00 0.01 0.01 0.01 0.01 0.01 0.01 0.00 0.00 0.00 0.00 0.00 0.00 0.00 0.00 0.00 0.00 0.00 0.00 0.00 0.00 0.00 0.00 0.01 0.02 0.05 0.08 0.08 0.07 0.04
0.00 0.00 0.00 0.00 0.00 0.00 0.00 0.00 0.00 0.00 0.00 0.00 0.01 0.02 0.04 0.06 0.07 0.06 0.04 0.04 0.02 0.01 0.01 0.00 0.00 0.00 0.00 0.00 0.00 0.00 0.00 0.00 0.00 0.00 0.00 0.00 0.00 0.01 0.02 0.03 0.03 0.04 0.04
0.01 0.00 0.00 0.00 0.00 0.00 0.00 0.00 0.01 0.01 0.02 0.02 0.04 0.08 0.09 0.11 0.15 0.14 0.16 0.17 0.15 0.09 0.04 0.02 0.01 0.01 0.01 0.00 0.00 0.00 0.00 0.00 0.00 0.00 0.00 0.00 0.00 0.00 0.00 0.00 0.00 0.00 0.01
0.01 0.00 0.00 0.00 0.00 0.01 0.01 0.01 0.02 0.02 0.04 0.05 0.07 0.12 0.12 0.14 0.16 0.16 0.20 0.26 0.29 0.24 0.16 0.09 0.04 0.02 0.02 0.02 0.01 0.00 0.00 0.00 0.00 0.00 0.00 0.00 0.00 0.00 0.00 0.00 0.00 0.00 0.00
0.00 0.01 0.01 0.01 0.02 0.03 0.04 0.07 0.07 0.05 0.05 0.06 0.08 0.09 0.10 0.11 0.14 0.17 0.22 0.26 0.31 0.34 0.28 0.19 0.13 0.08 0.05 0.04 0.03 0.02 0.01 0.00 0.00 0.00 0.00 0.00 0.00 0.00 0.00 0.00 0.00 0.00 0.00
0.01 0.01 0.03 0.05 0.08 0.10 0.14 0.16 0.11 0.08 0.06 0.05 0.06 0.08 0.10 0.11 0.12 0.13 0.16 0.19 0.24 0.29 0.30 0.30 0.27 0.23 0.18 0.13 0.09 0.06 0.03 0.01 0.00 0.00 0.00 0.00 0.00 0.00 0.00 0.00 0.00 0.00 0.00
0.02 0.04 0.10 0.17 0.26 0.31 0.32 0.24 0.13 0.08 0.07 0.07 0.07 0.08 0.09 0.08 0.09 0.09 0.10 0.12 0.13 0.17 0.23 0.30 0.35 0.39 0.35 0.26 0.18 0.12 0.07 0.03 0.02 0.01 0.00 0.00 0.00 0.00 0.00 0.00 0.00 0.00 0.00
0.07 0.14 0.26 0.42 0.57 0.55 0.41 0.27 0.14 0.10 0.09 0.07 0.06 0.06 0.06 0.08 0.08 0.08 0.08 0.07 0.06 0.08 0.13 0.23 0.30 0.38 0.41 0.37 0.27 0.21 0.16 0.09 0.04 0.02 0.01 0.00 0.00 0.00 0.00 0.00 0.00 0.00 0.00
0.15 0.27 0.41 0.54 0.62 0.55 0.38 0.23 0.13 0.10 0.07 0.06 0.04 0.04 0.04 0.04 0.05 0.05 0.04 0.04 0.04 0.05 0.09 0.14 0.22 0.30 0.37 0.40 0.37 0.29 0.22 0.16 0.10 0.06 0.03 0.01 0.00 0.00 0.00 0.00 0.00 0.00 0.00
MSLP
1011.46 1011.17 1011.03 1011.05 1011.21 1011.45 1011.72 1011.96 1012.13 1012.23 1012.28 1012.31 1012.37 1012.49 1012.66 1012.88 1013.11 1013.32 1013.48 1013.57 1013.59 1013.56 1013.51 1013.47 1013.47 1013.51 1013.61 1013.74 1013.89 1014.04 1014.18 1014.28 1014.35 1014.39 1014.41 1014.40 1014.39 1014.37 1014.35 1014.35 1014.38 1014.43 1014.51
1011.33 1011.11 1011.02 1011.08 1011.25 1011.50 1011.77 1012.01 1012.18 1012.30 1012.37 1012.44 1012.54 1012.69 1012.90 1013.15 1013.41 1013.63 1013.80 1013.89 1013.91 1013.88 1013.82 1013.78 1013.77 1013.80 1013.87 1013.97 1014.08 1014.19 1014.29 1014.37 1014.42 1014.46 1014.47 1014.48 1014.47 1014.46 1014.46 1014.46 1014.48 1014.53 1014.60
1011.09 1010.94 1010.90 1011.00 1011.22 1011.50 1011.79 1012.06 1012.26 1012.40 1012.50 1012.60 1012.73 1012.90 1013.12 1013.38 1013.63 1013.85 1014.01 1014.09 1014.11 1014.08 1014.04 1014.00 1013.99 1014.02 1014.08 1014.15 1014.24 1014.31 1014.38 1014.43 1014.48 1014.51 1014.54 1014.57 1014.59 1014.61 1014.62 1014.64 1014.67 1014.71 1014.77
1010.82 1010.71 1010.73 1010.89 1011.15 1011.48 1011.82 1012.12 1012.36 1012.54 1012.67 1012.79 1012.93 1013.10 1013.31 1013.55 1013.78 1013.97 1014.11 1014.18 1014.20 1014.18 1014.16 1014.15 1014.16 1014.20 1014.25 1014.32 1014.38 1014.43 1014.47 1014.51 1014.54 1014.59 1014.64 1014.70 1014.75 1014.81 1014.85 1014.89 1014.93 1014.97 1015.02
1010.57 1010.51 1010.58 1010.78 1011.11 1011.49 1011.88 1012.22 1012.50 1012.70 1012.85 1012.98 1013.11 1013.28 1013.46 1013.67 1013.86 1014.02 1014.13 1014.19 1014.21 1014.22 1014.22 1014.24 1014.29 1014.35 1014.42 1014.49 1014.54 1014.57 1014.60 1014.62 1014.65 1014.70 1014.78 1014.87 1014.97 1015.06 1015.13 1015.19 1015.24 1015.28 1015.31
1010.40 1010.38 1010.49 1010.75 1011.13 1011.56 1011.98 1012.35 1012.65 1012.86 1013.02 1013.14 1013.27 1013.42 1013.58 1013.76 1013.92 1014.05 1014.14 1014.19 1014.22 1014.24 1014.28 1014.34 1014.43 1014.53 1014.62 1014.70 1014.75 1014.77 1014.77 1014.78 1014.81 1014.87 1014.96 1015.08 1015.20 1015.32 1015.43 1015.50 1015.55 1015.58 1015.61
1010.36 1010.36 1010.51 1010.82 1011.22 1011.67 1012.11 1012.49 1012.78 1012.99 1013.14 1013.26 1013.38 1013.52 1013.68 1013.84 1013.99 1014.10 1014.18 1014.23 1014.27 1014.32 1014.39 1014.49 1014.62 1014.75 1014.87 1014.96 1015.01 1015.02 1015.01 1015.00 1015.02 1015.07 1015.17 1015.30 1015.45 1015.58 1015.69 1015.77 1015.82 1015.85 1015.86
1010.43 1010.46 1010.64 1010.97 1011.38 1011.83 1012.25 1012.59 1012.86 1013.04 1013.18 1013.30 1013.43 1013.59 1013.77 1013.95 1014.10 1014.23 1014.31 1014.37 1014.42 1014.48 1014.58 1014.71 1014.86 1015.02 1015.16 1015.26 1015.31 1015.31 1015.29 1015.26 1015.26 1015.30 1015.39 1015.52 1015.66 1015.80 1015.90 1015.98 1016.01 1016.03 1016.04
1010.57 1010.63 1010.84 1011.17 1011.58 1011.99 1012.36 1012.65 1012.86 1013.01 1013.13 1013.27 1013.43 1013.63 1013.86 1014.08 1014.28 1014.43 1014.53 1014.60 1014.65 1014.72 1014.82 1014.97 1015.14 1015.32 1015.47 1015.58 1015.62 1015.62 1015.58 1015.54 1015.52 1015.54 1015.61 1015.72 1015.84 1015.95 1016.04 1016.09 1016.11 1016.11 1016.11
1010.72 1010.82 1011.06 1011.40 1011.77 1012.13 1012.43 1012.65 1012.80 1012.91 1013.03 1013.18 1013.40 1013.66 1013.96 1014.25 1014.50 1014.69 1014.81 1014.88 1014.93 1015.00 1015.09 1015.23 1015.41 1015.59 1015.75 1015.87 1015.92 1015.91 1015.86 1015.81 1015.77 1015.77 1015.81 1015.89 1015.98 1016.06 1016.12 1016.14 1016.13 1016.11 1016.11
1010.84 1011.00 1011.26 1011.60 1011.94 1012.24 1012.46 1012.61 1012.70 1012.78 1012.89 1013.08 1013.34 1013.68 1014.06 1014.42 1014.73 1014.96 1015.10 1015.17 1015.21 1015.26 1015.34 1015.46 1015.63 1015.81 1015.98 1016.10 1016.16 1016.16 1016.11 1016.05 1016.00 1015.98 1015.99 1016.04 1016.09 1016.14 1016.16 1016.15 1016.12 1016.08 1016.07
1010.90 1011.11 1011.41 1011.74 1012.06 1012.30 1012.46 1012.54 1012.58 1012.64 1012.76 1012.98 1013.30 1013.71 1014.15 1014.57 1014.93 1015.18 1015.33 1015.40 1015.43 1015.45 1015.51 1015.62 1015.78 1015.96 1016.13 1016.26 1016.34 1016.35 1016.32 1016.26 1016.21 1016.17 1016.17 1016.18 1016.21 1016.22 1016.20 1016.16 1016.10 1016.05 1016.04
1010.86 1011.14 1011.47 1011.82 1012.11 1012.32 1012.44 1012.48 1012.50 1012.54 1012.67 1012.92 1013.29 1013.74 1014.23 1014.69 1015.06 1015.33 1015.48 1015.54 1015.54 1015.55 1015.59 1015.69 1015.85 1016.03 1016.22 1016.38 1016.47 1016.51 1016.50 1016.45 1016.40 1016.36 1016.34 1016.34 1016.33 1016.31 1016.27 1016.21 1016.13 1016.07 1016.06
1010.73 1011.06 1011.43 1011.79 1012.09 1012.29 1012.39 1012.43 1012.44 1012.50 1012.65 1012.92 1013.30 1013.77 1014.27 1014.73 1015.11 1015.37 1015.51 1015.56 1015.56 1015.56 1015.60 1015.71 1015.87 1016.08 1016.28 1016.46 1016.59 1016.65 1016.66 1016.63 1016.59 1016.56 1016.53 1016.51 1016.49 1016.45 1016.39 1016.30 1016.22 1016.15 1016.13
1010.50 1010.86 1011.26 1011.65 1011.96 1012.18 1012.31 1012.37 1012.42 1012.50 1012.67 1012.96 1013.34 1013.79 1014.27 1014.70 1015.05 1015.29 1015.42 1015.47 1015.48 1015.50 1015.57 1015.70 1015.90 1016.13 1016.36 1016.56 1016.71 1016.80 1016.83 1016.82 1016.79 1016.76 1016.73 1016.71 1016.67 1016.62 1016.54 1016.45 1016.36 1016.29 1016.27
1010.14 1010.52 1010.94 1011.34 1011.70 1011.96 1012.15 1012.28 1012.38 1012.52 1012.72 1013.00 1013.36 1013.78 1014.20 1014.58 1014.89 1015.11 1015.23 1015.30 1015.35 1015.42 1015.54 1015.72 1015.95 1016.22 1016.48 1016.70 1016.87 1016.97 1017.02 1017.02 1017.00 1016.97 1016.94 1016.91 1016.87 1016.81 1016.73 1016.64 1016.54 1016.47 1016.45
1009.65 1010.02 1010.43 1010.87 1011.27 1011.61 1011.88 1012.10 1012.29 1012.49 1012.73 1013.01 1013.35 1013.71 1014.06 1014.39 1014.65 1014.85 1014.98 1015.09 1015.20 1015.34 1015.53 1015.77 1016.06 1016.36 1016.65 1016.89 1017.06 1017.17 1017.22 1017.23 1017.21 1017.19 1017.16 1017.13 1017.08 1017.02 1016.93 1016.84 1016.74 1016.68 1016.66
1009.04 1009.35 1009.76 1010.21 1010.67 1011.09 1011.48 1011.81 1012.11 1012.39 1012.67 1012.96 1013.26 1013.56 1013.85 1014.12 1014.34 1014.53 1014.69 1014.85 1015.04 1015.27 1015.54 1015.86 1016.20 1016.54 1016.85 1017.09 1017.27 1017.38 1017.43 1017.43 1017.42 1017.40 1017.37 1017.34 1017.29 1017.22 1017.14 1017.04 1016.95 1016.89 1016.86
1008.31 1008.57 1008.94 1009.41 1009.93 1010.45 1010.95 1011.41 1011.82 1012.19 1012.52 1012.82 1013.10 1013.35 1013.58 1013.79 1013.99 1014.18 1014.38 1014.61 1014.88 1015.20 1015.56 1015.95 1016.34 1016.71 1017.03 1017.28 1017.45 1017.56 1017.61 1017.62 1017.61 1017.59 1017.57 1017.54 1017.50 1017.43 1017.35 1017.25 1017.16 1017.09 1017.06
1007.55 1007.73 1008.08 1008.55 1009.12 1009.73 1010.35 1010.93 1011.46 1011.91 1012.30 1012.61 1012.87 1013.08 1013.26 1013.44 1013.62 1013.82 1014.06 1014.36 1014.71 1015.11 1015.54 1015.99 1016.42 1016.81 1017.14 1017.38 1017.56 1017.67 1017.73 1017.75 1017.77 1017.77 1017.77 1017.75 1017.71 1017.65 1017.56 1017.46 1017.37 1017.30 1017.26
1006.85 1006.96 1007.27 1007.75 1008.36 1009.05 1009.76 1010.45 1011.07 1011.61 1012.04 1012.37 1012.61 1012.79 1012.94 1013.09 1013.26 1013.47 1013.75 1014.10 1014.50 1014.96 1015.44 1015.93 1016.38 1016.78 1017.10 1017.36 1017.54 1017.67 1017.75 1017.82 1017.87 1017.91 1017.94 1017.95 1017.93 1017.88 1017.79 1017.69 1017.59 1017.51 1017.46
1006.32 1006.38 1006.65 1007.13 1007.77 1008.52 1009.30 1010.06 1010.75 1011.34 1011.80 1012.14 1012.37 1012.53 1012.65 1012.78 1012.94 1013.16 1013.45 1013.82 1014.26 1014.74 1015.24 1015.73 1016.18 1016.58 1016.90 1017.17 1017.37 1017.53 1017.67 1017.79 1017.90 1018.01 1018.08 1018.13 1018.14 1018.10 1018.02 1017.92 1017.81 1017.72 1017.66
1006.08 1006.09 1006.35 1006.82 1007.47 1008.24 1009.05 1009.85 1010.57 1011.17 1011.64 1011.97 1012.19 1012.33 1012.43 1012.53 1012.68 1012.89 1013.18 1013.55 1013.98 1014.45 1014.93 1015.39 1015.82 1016.20 1016.53 1016.81 1017.05 1017.26 1017.46 1017.66 1017.84 1018.02 1018.16 1018.26 1018.30 1018.28 1018.22 1018.12 1018.00 1017.91 1017.84
1006.18 1006.18 1006.42 1006.89 1007.52 1008.28 1009.08 1009.86 1010.56 1011.14 1011.58 1011.89 1012.08 1012.20 1012.28 1012.37 1012.50 1012.69 1012.96 1013.29 1013.68 1014.10 1014.53 1014.95 1015.34 1015.70 1016.01 1016.31 1016.58 1016.86 1017.13 1017.40 1017.67 1017.92 1018.13 1018.28 1018.36 1018.38 1018.33 1018.24 1018.13 1018.02 1017.95
1006.62 1006.63 1006.87 1007.31 1007.91 1008.61 1009.35 1010.07 1010.71 1011.23 1011.63 1011.89 1012.06 1012.15 1012.21 1012.29 1012.39 1012.56 1012.79 1013.07 1013.40 1013.75 1014.11 1014.46 1014.80 1015.12 1015.43 1015.73 1016.04 1016.36 1016.70 1017.04 1017.38 1017.69 1017.96 1018.16 1018.28 1018.33 1018.30 1018.23 1018.13 1018.03 1017.96
1007.33 1007.37 1007.60 1008.00 1008.54 1009.16 1009.80 1010.42 1010.96 1011.39 1011.72 1011.94 1012.07 1012.14 1012.20 1012.26 1012.35 1012.50 1012.68 1012.91 1013.17 1013.45 1013.73 1014.01 1014.28 1014.56 1014.85 1015.15 1015.47 1015.82 1016.20 1016.59 1016.97 1017.33 1017.63 1017.87 1018.02 1018.10 1018.11 1018.06 1017.98 1017.91 1017.85
Thickness
5794 5795 5794 5791 5788 5785 5782 5780 5777 5775 5773 5771 5769 5767 5766 5764 5763 5762 5762 5762 5763 5763 5764 5764 5765 5766 5767 5767 5768 5768 5769 5769 5769 5770 5770 5771 5773 5774 5775 5776 5778 5780 5781
5800 5796 5794 5791 5788 5785 5782 5780 5777 5775 5772 5770 5768 5766 5764 5762 5761 5760 5760 5760 5760 5761 5761 5762 5762 5763 5763 5764 5764 5765 5766 5766 5767 5767 5767 5768 5769 5771 5772 5773 5775 5777 5778
5801 5797 5794 5791 5787 5785 5782 5780 5777 5775 5772 5770 5767 5765 5762 5760 5759 5758 5758 5758 5758 5758 5759 5759 5759 5759 5760 5760 5760 5762 5763 5764 5764 5764 5765 5765 5766 5768 5769 5770 5772 5773 5775
5801 5798 5795 5791 5788 5785 5782 5780 5777 5775 5772 5769 5767 5764 5761 5759 5757 5756 5756 5756 5756 5756 5756 5756 5756 5756 5756 5756 5757 5758 5759 5761 5762 5762 5762 5763 5764 5765 5766 5767 5768 5769 5771
5800 5797 5795 5792 5789 5785 5782 5780 5778 5775 5772 5769 5766 5763 5761 5758 5756 5755 5754 5754 5754 5753 5753 5753 5753 5753 5752 5752 5753 5755 5757 5758 5760 5760 5761 5761 5762 5763 5764 5764 5765 5766 5767
5798 5796 5794 5792 5789 5786 5783 5780 5778 5775 5772 5769 5766 5763 5760 5758 5756 5754 5753 5752 5751 5751 5750 5750 5750 5749 5748 5748 5749 5751 5754 5756 5757 5758 5759 5760 5760 5761 5762 5762 5762 5763 5764
5797 5796 5794 5792 5789 5786 5783 5780 5778 5775 5773 5770 5766 5763 5760 5757 5755 5753 5751 5750 5749 5749 5748 5747 5747 5746 5745 5745 5746 5749 5751 5753 5754 5755 5757 5758 5758 5759 5760 5760 5760 5760 5761
5797 5795 5793 5791 5789 5786 5784 5781 5778 5775 5773 5770 5767 5763 5760 5757 5755 5753 5751 5749 5748 5747 5745 5745 5744 5743 5743 5743 5744 5746 5748 5750 5752 5753 5754 5755 5756 5757 5758 5758 5758 5758 5759
5796 5794 5793 5791 5789 5786 5784 5781 5778 5776 5773 5770 5767 5764 5761 5758 5755 5753 5750 5748 5747 5745 5744 5743 5742 5741 5741 5742 5743 5744 5746 5747 5749 5750 5752 5753 5754 5755 5755 5755 5756 5756 5756
5794 5793 5792 5790 5788 5786 5783 5781 5778 5776 5773 5771 5768 5764 5761 5758 5755 5753 5750 5748 5746 5744 5742 5741 5740 5739 5739 5740 5741 5743 5744 5745 5746 5747 5748 5750 5751 5752 5752 5753 5754 5754 5754
5791 5791 5791 5789 5787 5785 5782 5780 5778 5775 5773 5770 5767 5764 5761 5758 5755 5752 5750 5747 5745 5743 5741 5739 5738 5737 5737 5738 5740 5741 5741 5742 5742 5743 5745 5746 5748 5749 5749 5750 5751 5752 5752
5789 5789 5789 5788 5786 5784 5782 5779 5777 5775 5772 5769 5766 5763 5760 5757 5754 5751 5749 5747 5744 5742 5739 5737 5736 5735 5735 5736 5737 5738 5738 5738 5739 5740 5742 5744 5745 5746 5747 5748 5749 5750 5750
5792 5790 5788 5786 5784 5782 5780 5778 5775 5773 5771 5768 5765 5762 5759 5756 5753 5750 5747 5745 5743 5741 5738 5736 5734 5733 5732 5733 5733 5734 5734 5735 5735 5737 5738 5741 5743 5744 5745 5746 5746 5747 5748
5792 5790 5789 5786 5783 5781 5779 5776 5774 5771 5768 5766 5763 5760 5757 5754 5751 5748 5745 5743 5741 5739 5736 5735 5733 5731 5730 5730 5730 5730 5730 5730 5731 5733 5735 5737 5739 5741 5742 5743 5744 5745 5745
5791 5790 5788 5786 5782 5779 5776 5774 5771 5769 5767 5764 5762 5759 5756 5753 5750 5747 5744 5741 5739 5737 5735 5733 5732 5731 5729 5727 5726 5726 5725 5726 5727 5728 5730 5732 5735 5737 5738 5740 5741 5742 5743
5792 5790 5789 5785 5782 5778 5774 5772 5769 5767 5765 5762 5759 5757 5754 5751 5748 5746 5743 5740 5738 5735 5734 5732 5730 5729 5728 5725 5723 5722 5721 5721 5722 5723 5724 5727 5729 5731 5733 5735 5736 5738 5739
5793 5791 5788 5786 5782 5777 5773 5770 5767 5765 5762 5759 5757 5754 5751 5749 5746 5744 5742 5739 5737 5734 5732 5730 5728 5726 5724 5722 5720 5718 5717 5717 5717 5718 5719 5720 5722 5724 5726 5728 5730 5732 5733
5793 5790 5788 5787 5781 5777 5773 5768 5766 5763 5760 5757 5754 5752 5749 5747 5744 5742 5740 5738 5735 5732 5730 5727 5725 5722 5720 5718 5715 5714 5713 5713 5713 5713 5714 5715 5716 5717 5719 5721 5723 5725 5727
5795 5791 5787 5785 5782 5777 5772 5767 5763 5761 5758 5756 5753 5750 5748 5745 5742 5740 5738 5736 5733 5730 5727 5725 5721 5719 5715 5713 5711 5709 5708 5708 5708 5709 5709 5709 5710 5711 5712 5713 5716 5718 5721
5797 5792 5788 5784 5780 5776 5770 5764 5759 5756 5755 5753 5751 5748 5746 5744 5740 5738 5735 5733 5730 5727 5724 5721 5717 5715 5712 5709 5707 5703 5702 5702 5703 5704 5704 5704 5704 5704 5705 5706 5708 5711 5714
5796 5792 5788 5782 5777 5772 5764 5758 5753 5751 5750 5749 5748 5746 5744 5742 5739 5736 5734 5730 5727 5723 5720 5717 5713 5709 5705 5703 5699 5695 5696 5697 5697 5698 5699 5699 5699 5699 5699 5700 5702 5704 5707
5796 5794 5790 5783 5776 5770 5764 5758 5752 5749 5746 5745 5744 5743 5742 5740 5737 5735 5731 5728 5725 5720 5716 5713 5708 5703 5700 5699 5694 5688 5685 5687 5691 5694 5694 5694 5694 5694 5694 5695 5696 5699 5701
5792 5792 5788 5782 5774 5767 5760 5751 5745 5741 5739 5737 5736 5737 5738 5737 5735 5733 5730 5726 5723 5718 5714 5710 5706 5701 5696 5693 5692 5688 5681 5678 5681 5686 5689 5691 5691 5690 5690 5690 5692 5694 5696
5787 5787 5782 5776 5767 5759 5753 5743 5736 5732 5730 5731 5732 5732 5732 5732 5730 5728 5725 5723 5719 5716 5712 5709 5705 5700 5695 5690 5687 5686 5685 5683 5677 5677 5682 5685 5687 5687 5686 5687 5688 5689 5691
5776 5774 5771 5765 5758 5751 5743 5735 5730 5726 5726 5726 5727 5726 5726 5725 5724 5723 5721 5718 5715 5712 5709 5706 5703 5698 5694 5689 5685 5682 5679 5678 5677 5674 5673 5678 5681 5684 5684 5684 5685 5686 5687
5761 5759 5757 5753 5747 5742 5734 5727 5723 5720 5719 5720 5720 5720 5719 5719 5718 5718 5716 5713 5710 5708 5705 5702 5699 5695 5692 5688 5685 5682 5677 5674 5673 5672 5671 5672 5674 5679 5681 5682 5683 5684 5684